K4DXB Weather Reports


Display with metric or nautical units.
time (UTC)temp
F
wind
direction
speed
MPH
gust
MPH
rain 1hr
in
rain 24hr
in
rain mn
in
humidity
%
barometer
mb
20260505170551 84 186 3.0 6.0 0.00 0.00 0.00 3 1010.3
20260505165051 84 250 1.0 6.0 0.00 0.00 0.00 3 1010.7
20260505163551 83 157 0.0 1.0 0.00 0.00 0.00 3 1010.7
20260505162053 82 190 2.0 10.0 0.00 0.00 0.00 3 1010.9
20260505160552 81 249 0.0 3.0 0.00 0.00 0.00 4 1011.3
20260505152351 79 0 0.0 0.0 0.00 0.00 0.00 4 1011.3
20260505152051 79 0 0.0 0.0 0.00 0.00 0.00 4 1011.3
20260505150551 78 236 0.0 6.0 0.00 0.00 0.00 4 1011.6
20260505140552 74 209 2.0 6.0 0.00 0.00 0.00 4 1012.1
20260505123552 66 270 0.0 2.0 0.00 0.00 0.00 6 1012.2
20260505122051 65 303 0.0 3.0 0.00 0.00 0.00 6 1012.0
20260505120551 64 0 0.0 1.0 0.00 0.00 0.00 7 1011.9
20260505115051 63 0 0.0 0.0 0.00 0.00 0.00 7 1012.0
20260505113551 61 0 0.0 0.0 0.00 0.00 0.00 7 1012.1
20260504205949 76 338 4.0 7.0 0.00 0.00 0.00 2 1010.3
20260504204450 77 114 1.0 7.0 0.00 0.00 0.00 2 1010.3
20260504202948 77 222 3.0 11.0 0.00 0.00 0.00 2 1010.3
20260504201532 75 204 6.0 11.0 0.00 0.00 0.00 2 1010.5
20260504201450 75 204 6.0 11.0 0.00 0.00 0.00 2 1010.5
20260504200027 75 201 0.0 4.0 0.00 0.00 0.00 2 1010.6
20260504195949 75 201 0.0 4.0 0.00 0.00 0.00 2 1010.6
20260504194449 74 252 2.0 11.0 0.00 0.00 0.00 2 1010.8
20260504192948 74 296 4.0 9.0 0.00 0.00 0.00 3 1010.8
20260504191449 74 214 5.0 12.0 0.00 0.00 0.00 3 1011.2
20260504184449 74 210 3.0 8.0 0.00 0.00 0.00 3 1011.4
20260504183037 73 248 2.0 10.0 0.00 0.00 0.00 3 1012.0
20260504182948 73 248 2.0 10.0 0.00 0.00 0.00 3 1012.0
20260504181450 74 247 0.0 9.0 0.00 0.00 0.00 3 1012.0
20260504174449 72 175 4.0 5.0 0.00 0.00 0.00 3 1012.2
20260504172950 72 267 0.0 7.0 0.00 0.00 0.00 3 1012.5
20260504171449 71 282 2.0 11.0 0.00 0.00 0.00 3 1012.7